"TOA5","AWS1","CR1000","7964","CR1000.Std.14","CPU:AWS1_114.CR1","64363","TBL110"
"TIMESTAMP","RECORD","Wind_spd_WVc(1)","Wind_spd_WVc(2)","Air_Temp_Avg","Humidity_Avg","SW_upper_Wm2_Avg","Rain_Tot","Press_Avg","Issui_Tot","Depth_cm","SR50A_Raw","Quality","Ground_Temp_Avg(1)","Ground_Temp_Avg(2)","SW_lower_Wm2_Avg","Albedo_Avg","SWC_per(1)","SWC_per(2)","Period(1)","Period(2)"
"TS","RN","","","","","","","","","","","","","","","","","","",""
"","","WVc","WVc","Avg","Avg","Avg","Tot","Avg","Tot","Smp","Smp","Smp","Avg","Avg","Avg","Avg","Smp","Smp","Smp","Smp"
"2018-02-18 00:00:00",328237,1.788,300.1,-12.01,87.2,0.003935658,0.5,859.9115,0,118.2,2.043,174,0.961,1.59,0,0,52.16,59.67,33.83,35.6
"2018-02-18 00:10:00",328238,1.432,236.4,-12.04,86.5,0.01967829,0,859.96,0,118.4,2.042,189,0.959,1.59,0,0,52.21,59.67,33.84,35.6
"2018-02-18 00:20:00",328239,1.803,290.5,-12.09,86.6,0,0,859.9811,0,118.1,2.045,172,0.982,1.59,0.01138417,0,52.21,59.67,33.84,35.6
"2018-02-18 00:30:00",328240,1.378,295,-12.06,85.8,0,0,859.8862,0,117.8,2.048,175,0.987,1.59,0,0,52.21,59.67,33.84,35.6
"2018-02-18 00:40:00",328241,1.261,318.2,-12.14,85.2,0,0,859.9453,0,117.7,2.049,171,1.012,1.589,0,0,52.21,59.67,33.84,35.6
"2018-02-18 00:50:00",328242,1.581,246.7,-12.17,85.7,0,0,859.9621,0,117.9,2.047,192,0.997,1.581,0,0,52.21,59.67,33.84,35.6
"2018-02-18 01:00:00",328243,1.444,250.3,-12.23,85,0,0,860.0254,0,117.9,2.048,189,0.997,1.594,0,0,52.21,59.67,33.84,35.6
"2018-02-18 01:10:00",328244,1.679,274.4,-12.24,84.8,0,0,860.1878,0,117.7,2.05,193,0.995,1.559,0.01138452,0,52.21,59.67,33.84,35.6
"2018-02-18 01:20:00",328245,1.337,287.8,-12.17,85,0,0,860.4366,0,117.5,2.051,189,1.015,1.563,0.04933597,0,52.21,59.67,33.84,35.6
"2018-02-18 01:30:00",328246,1.141,269.8,-12.16,85.2,0,0,860.6898,0.5,117.4,2.052,192,1.024,1.558,0.06072497,0,52.21,59.67,33.84,35.6
"2018-02-18 01:40:00",328247,0.941,266.4,-12.1,84.8,0,0,860.7572,0,117,2.056,191,1.028,1.56,0.140428,0,52.21,59.67,33.84,35.6
"2018-02-18 01:50:00",328248,0.966,214.9,-12.1,85.9,0,0,860.7425,0,117.2,2.054,190,1.034,1.559,0.07590936,0,52.21,59.67,33.84,35.6
"2018-02-18 02:00:00",328249,0.733,234.1,-12.11,86.5,0,0,860.6961,0,116.6,2.061,193,1.045,1.568,0.04554758,0,52.21,59.67,33.84,35.6
"2018-02-18 02:10:00",328250,0.997,245.8,-12.14,86.6,0,0,860.7193,0,116.9,2.057,176,1.056,1.581,0.06832495,0,52.21,59.67,33.84,35.6
"2018-02-18 02:20:00",328251,0.82,238.6,-12.09,86.6,0,0,860.8248,0,117,2.056,171,1.066,1.591,0.02657122,0,52.21,59.67,33.84,35.6
"2018-02-18 02:30:00",328252,0.57,222.2,-12.11,86.6,0,0,860.791,0,116.9,2.057,196,1.071,1.597,0,0,52.21,59.67,33.84,35.6
"2018-02-18 02:40:00",328253,0.925,207.6,-12.17,86.6,0,0,860.848,0,117.5,2.051,170,1.073,1.601,0.02277604,0,52.21,59.67,33.84,35.6
"2018-02-18 02:50:00",328254,0.966,204.2,-12.15,86.4,0.02362201,0,861.0462,0,117.4,2.052,170,1.073,1.618,0.003796017,0,52.21,59.67,33.84,35.6
"2018-02-18 03:00:00",328255,0.951,257.3,-12.17,85.6,0.07874005,0,861.1875,0,117.6,2.05,191,1.073,1.626,0,0,52.21,59.67,33.84,35.6
"2018-02-18 03:10:00",328256,0.544,242.1,-12.17,84.3,0,0.5,861.2676,0,117.5,2.051,191,1.073,1.629,0,0,52.21,59.67,33.84,35.6
"2018-02-18 03:20:00",328257,0.757,194.5,-12.15,84.6,0,0,861.4427,0,117.3,2.053,170,1.073,1.633,0.1594328,0,52.21,59.67,33.84,35.6
"2018-02-18 03:30:00",328258,0.885,195.7,-12.15,85.2,0,0,861.6389,0,117.1,2.055,194,1.073,1.629,0.01518408,0,52.16,59.67,33.83,35.6
"2018-02-18 03:40:00",328259,0.593,194.5,-12.15,84.5,0,0,861.7001,0,117.1,2.056,193,1.073,1.633,0,0,52.21,59.73,33.84,35.62
"2018-02-18 03:50:00",328260,0.803,186.4,-12.34,86.1,0.1811021,0,861.6727,0,117.1,2.056,203,1.073,1.639,0,0,52.21,59.67,33.84,35.6
"2018-02-18 04:00:00",328261,0.827,212.5,-12.44,86.1,0.06299205,0,861.835,0,117.3,2.054,226,1.073,1.643,0,0,52.16,59.67,33.83,35.6
"2018-02-18 04:10:00",328262,0.914,201,-12.36,85.6,0,0,862.1619,0,117.5,2.052,241,1.073,1.656,0.02277612,0,52.21,59.67,33.84,35.6
"2018-02-18 04:20:00",328263,0.837,248.7,-12.31,85.9,0,0,862.3051,0,117.1,2.056,191,1.073,1.661,0.2087811,0,52.21,59.67,33.84,35.6
"2018-02-18 04:30:00",328264,1.027,250.6,-12.12,85.2,0,0,862.4604,0,117,2.056,169,1.073,1.658,0.2277612,0,52.21,59.67,33.84,35.6
"2018-02-18 04:40:00",328265,0.837,266.8,-12.03,85.1,0,0,862.4554,0,117.2,2.054,190,1.073,1.657,0.2277612,0,52.21,59.67,33.84,35.6
"2018-02-18 04:50:00",328266,0.89,227.8,-12.01,85.8,0,0,862.4477,0,116.8,2.058,191,1.073,1.658,0.2277612,0,52.21,59.67,33.84,35.6
"2018-02-18 05:00:00",328267,0.76,245.9,-12.06,86.7,0,0,862.4599,0,116.1,2.065,192,1.073,1.658,0.00759204,0,52.21,59.67,33.84,35.6
"2018-02-18 05:10:00",328268,0.704,183.1,-12.14,87.3,0.06299205,0,862.3871,0,116.3,2.064,196,1.073,1.653,0,0,52.21,59.67,33.84,35.6
"2018-02-18 05:20:00",328269,1.076,194.3,-12.27,88.1,0.1692911,0,862.4601,0,116.6,2.061,197,1.073,1.67,0,0,52.21,59.67,33.84,35.6
"2018-02-18 05:30:00",328270,0.771,184.7,-12.22,87.9,0.03937003,0,862.4822,0,116.6,2.06,185,1.073,1.677,0.0569403,0,52.21,59.67,33.84,35.6
"2018-02-18 05:40:00",328271,1.062,191.5,-12.06,85.6,0,0,862.6154,0,116.6,2.06,174,1.073,1.675,0.2277612,0,52.21,59.67,33.84,35.6
"2018-02-18 05:50:00",328272,0.811,187.7,-11.92,84.7,0,0,862.647,0,116.6,2.059,192,1.073,1.675,0.1708209,0,52.21,59.67,33.84,35.6
"2018-02-18 06:00:00",328273,0.928,260.4,-11.97,85,0,0,862.5173,0,116.7,2.058,170,1.073,1.675,0.0189801,0,52.21,59.67,33.84,35.6
"2018-02-18 06:10:00",328274,1.152,257.1,-11.85,85,0,0,862.4562,0,116.8,2.057,194,1.073,1.673,0.1062886,0,52.21,59.67,33.84,35.6
"2018-02-18 06:20:00",328275,1.022,254.3,-11.76,85.5,0.003937003,0,862.4542,0,116.6,2.059,176,1.073,1.674,0.1746169,0,52.21,59.67,33.84,35.6
"2018-02-18 06:30:00",328276,0.522,212.1,-11.88,84.9,0.2322832,0,862.3168,0,116.4,2.062,172,1.073,1.674,0.08730846,0.354,52.21,59.67,33.84,35.6
"2018-02-18 06:40:00",328277,0.47,188.9,-12.12,85.6,0.8622036,0,862.3221,0,116.2,2.065,171,1.073,1.67,1.393139,1.865,52.16,59.67,33.83,35.6
"2018-02-18 06:50:00",328278,0.424,195.6,-12.24,86.4,1.921257,0,862.469,0,116.2,2.065,186,1.073,1.668,4.122478,2.122,52.21,59.67,33.84,35.6
"2018-02-18 07:00:00",328279,0.533,201.7,-12.26,87,3.311019,0,862.4971,0,116.1,2.066,194,1.073,1.665,7.842577,2.377,52.21,59.67,33.84,35.6
"2018-02-18 07:10:00",328280,0.849,244.1,-11.97,85.9,5.074797,0,862.489,0,116,2.065,189,1.073,1.661,12.48511,2.456,52.21,59.67,33.84,35.6
"2018-02-18 07:20:00",328281,0.767,244.1,-11.77,85,7.043298,0,862.6575,0,116,2.065,170,1.074,1.668,18.81687,2.668,52.21,59.67,33.84,35.6
"2018-02-18 07:30:00",328282,1.021,274.2,-11.62,84.7,9.003925,0,862.6827,0.5,115.8,2.066,174,1.073,1.673,23.6492,2.628,52.21,59.67,33.84,35.6
"2018-02-18 07:40:00",328283,1.284,268,-11.46,84.3,19.48816,0,862.7014,0,115.9,2.064,192,1.073,1.673,37.52366,2.082,52.21,59.67,33.84,35.6
"2018-02-18 07:50:00",328284,0.612,195.5,-11.26,84,27.05115,0,862.7156,0,115.8,2.065,192,1.073,1.663,50.81353,1.898,52.21,59.67,33.84,35.6
"2018-02-18 08:00:00",328285,0.592,174.8,-10.99,83.3,25.41729,0,862.9215,0,115.8,2.064,192,1.073,1.637,63.15438,2.493,52.21,59.73,33.84,35.62
"2018-02-18 08:10:00",328286,0.731,194.7,-10.78,81.7,27.07477,0,863.1666,0,115.7,2.064,187,1.073,1.615,67.48185,2.479,52.21,59.67,33.84,35.6
"2018-02-18 08:20:00",328287,1.041,257.5,-10.61,80.6,32.88578,0,863.2582,0,115.7,2.063,170,1.073,1.598,74.46273,2.256,52.21,59.67,33.84,35.6
"2018-02-18 08:30:00",328288,1.32,268.9,-10.5,79.47,32.24012,0,863.4975,0,115.6,2.064,174,1.073,1.593,74.84612,2.331,52.21,59.67,33.84,35.6
"2018-02-18 08:40:00",328289,0.707,251.3,-10.34,80.1,42.61412,0,863.6686,0,115.8,2.061,175,1.073,1.593,89.44942,2.172,52.21,59.67,33.84,35.6
"2018-02-18 08:50:00",328290,0.976,269.8,-10.29,79.87,37.12988,0,863.7362,0,115.5,2.064,170,1.054,1.615,82.83295,2.258,52.21,59.67,33.84,35.6
"2018-02-18 09:00:00",328291,0.761,257.4,-10.15,78.82,40.45224,0,863.7482,0,115.3,2.065,170,1.051,1.633,88.14635,2.175,52.21,59.67,33.84,35.6
"2018-02-18 09:10:00",328292,1.107,233.7,-9.87,77.96,48.09328,0,863.8267,0,115.5,2.062,170,1.014,1.631,108.1954,2.238,52.21,59.67,33.84,35.6
"2018-02-18 09:20:00",328293,0.909,160.4,-9.04,76.18,62.03629,0,863.9338,0,115.1,2.063,170,1.039,1.604,145.6577,2.336,52.21,59.67,33.84,35.6
"2018-02-18 09:30:00",328294,0.905,271.4,-9.3,75.53,49.64083,0,864.0667,0,115.4,2.062,169,1.065,1.622,106.2328,2.14,52.21,59.73,33.84,35.62
"2018-02-18 09:40:00",328295,0.899,296.4,-9.08,75.17,51.06031,0,864.0899,0,115.2,2.063,177,1.077,1.621,113.9827,2.221,52.21,59.67,33.84,35.6
"2018-02-18 09:50:00",328296,0.83,260.1,-9.05,75.21,48.83614,0,864.2164,0,115,2.063,178,1.04,1.603,108.0754,2.195,52.21,59.73,33.84,35.62
"2018-02-18 10:00:00",328297,0.928,204.5,-8.65,73.18,59.1186,0,864.2966,0,115.3,2.06,182,1,1.632,145.1205,2.459,52.21,59.67,33.84,35.6
"2018-02-18 10:10:00",328298,0.736,240.4,-8.66,73.78,57.03587,0,864.3661,0,114.7,2.066,173,0.993,1.633,141.3466,2.472,52.21,59.67,33.84,35.6
"2018-02-18 10:20:00",328299,0.703,271.7,-8.65,73.37,52.31287,0,864.267,0,115,2.062,169,0.987,1.635,134.1741,2.568,52.16,59.67,33.83,35.6
"2018-02-18 10:30:00",328300,1.006,205.5,-8.37,72.06,63.04536,0,864.5117,0,114.9,2.062,187,0.986,1.634,164.0005,2.602,52.16,59.67,33.83,35.6
"2018-02-18 10:40:00",328301,0.684,183.5,-7.855,71.57,67.02824,0,864.4716,0,114.8,2.062,178,0.98,1.634,186.9434,2.779,52.21,59.67,33.84,35.6
"2018-02-18 10:50:00",328302,0.848,302.1,-8.02,70.69,63.10439,0,864.5264,0,114.7,2.064,186,0.953,1.615,179.4602,2.803,52.16,59.67,33.83,35.6
"2018-02-18 11:00:00",328303,0.859,281.7,-8.08,71.35,67.81538,0,864.5391,0,114.8,2.062,183,0.967,1.624,192.2712,2.795,52.21,59.67,33.84,35.6
"2018-02-18 11:10:00",328304,0.54,244.7,-7.611,70.43,68.48042,0,864.5757,0,114.4,2.064,177,1.025,1.666,195.3371,2.824,52.21,59.67,33.84,35.6
"2018-02-18 11:20:00",328305,1.127,297.1,-7.497,68.48,82.67741,0,864.7343,0,113.8,2.071,192,1.008,1.656,228.1923,2.719,52.21,59.67,33.84,35.6
"2018-02-18 11:30:00",328306,1.133,318.6,-7.583,67.76,91.46364,0,864.5423,0,113.9,2.07,191,0.984,1.605,269.5121,2.932,52.16,59.67,33.83,35.6
"2018-02-18 11:40:00",328307,1.222,320.8,-7.568,68.94,80.13764,0,864.3983,0,113.9,2.071,192,1.007,1.559,233.5148,2.898,52.21,59.67,33.84,35.6
"2018-02-18 11:50:00",328308,1.07,310.1,-7.657,68.15,93.56313,0,864.3076,0,113.9,2.07,192,1,1.55,292.5187,3.074,52.21,59.67,33.84,35.6
"2018-02-18 12:00:00",328309,0.994,296.1,-6.908,64.36,119.2535,0,864.3049,0,113.4,2.073,182,1.016,1.547,402.2379,3.313,52.21,59.67,33.84,35.6
"2018-02-18 12:10:00",328310,0.717,272.1,-7.456,66.94,65.85264,0,864.1404,0,113.9,2.069,187,1.005,1.547,209.8906,3.038,52.21,59.67,33.84,35.6
"2018-02-18 12:20:00",328311,0.712,232.2,-6.923,65.2,96.08643,0,864.1142,0,113.9,2.069,178,0.949,1.56,293.513,2.848,52.21,59.67,33.84,35.6
"2018-02-18 12:30:00",328312,0.627,237.5,-6.928,66.84,131.3284,0,864.0588,0,113.5,2.069,173,0.961,1.587,431.014,3.134,52.21,59.73,33.84,35.62
"2018-02-18 12:40:00",328313,1.224,303.8,-7.069,63.21,104.6171,0,864.0497,0,113.3,2.074,173,0.969,1.565,328.4696,3.023,52.21,59.67,33.84,35.6
"2018-02-18 12:50:00",328314,1.56,317.9,-6.657,61.81,158.5216,0,863.7834,0,113,2.074,173,0.935,1.557,520.9487,3.205,52.21,59.73,33.84,35.62
"2018-02-18 13:00:00",328315,0.749,5.657,-6.79,64.08,90.09787,0,863.6684,0,113.4,2.073,174,0.908,1.548,274.8769,3.01,52.21,59.67,33.84,35.6
"2018-02-18 13:10:00",328316,0.695,46.19,-6.861,65.15,82.07717,0,863.7652,0,113.4,2.071,170,0.921,1.544,238.6123,2.89,52.21,59.67,33.84,35.6
"2018-02-18 13:20:00",328317,0.642,269.5,-6.835,66.2,73.93096,0,863.7346,0,113.2,2.075,173,0.943,1.529,210.1154,2.83,52.21,59.67,33.84,35.6
"2018-02-18 13:30:00",328318,0.795,319,-7.184,64.77,58.20452,0,863.712,0,113.4,2.074,169,0.93,1.493,162.2453,2.743,52.21,59.67,33.84,35.6
"2018-02-18 13:40:00",328319,1.718,276.5,-7.447,64.35,78.30226,0,863.6584,0,113.1,2.077,181,0.861,1.469,228.7352,2.755,52.21,59.67,33.84,35.6
"2018-02-18 13:50:00",328320,0.938,231.2,-6.897,64.1,95.73699,0,863.6545,0,113.2,2.074,185,0.851,1.46,278.7874,2.801,52.21,59.67,33.84,35.6
"2018-02-18 14:00:00",328321,0.624,194.6,-6.677,65.87,90.14481,0,863.6514,0,112.9,2.076,177,0.841,1.456,242.7361,2.7,52.21,59.67,33.84,35.6
"2018-02-18 14:10:00",328322,1.144,224,-6.493,63.46,131.0846,0,863.5089,0,113.4,2.071,198,0.87,1.455,308.8893,2.378,52.21,59.67,33.84,35.6
"2018-02-18 14:20:00",328323,1.295,304,-6.677,63.69,93.03416,0,863.5679,0,113,2.077,173,0.928,1.457,219.6109,2.466,52.21,59.67,33.84,35.6
"2018-02-18 14:30:00",328324,1.294,294.6,-7.334,66.83,50.68263,0,863.5781,0,113.3,2.075,204,0.909,1.455,131.5686,2.585,52.21,59.67,33.84,35.6
"2018-02-18 14:40:00",328325,0.8,212.8,-6.818,67.05,60.84589,0,863.4891,0,113.1,2.075,205,0.917,1.464,158.2675,2.575,52.21,59.67,33.84,35.6
"2018-02-18 14:50:00",328326,0.715,209.7,-6.956,67.53,36.57595,0,863.4637,0,113.7,2.07,242,0.936,1.473,81.8063,2.227,52.21,59.67,33.84,35.6
"2018-02-18 15:00:00",328327,0.73,341.3,-6.895,66.33,49.24759,0,863.4489,0,113.1,2.075,218,0.914,1.46,125.2683,2.539,52.21,59.67,33.84,35.6
"2018-02-18 15:10:00",328328,0.922,252.1,-6.886,65.57,43.26375,0,863.5205,0,113,2.077,217,0.825,1.456,107.3757,2.469,52.21,59.67,33.84,35.6
"2018-02-18 15:20:00",328329,0.72,358.6,-6.963,65.81,35.94585,0,863.611,0,112.9,2.077,211,0.832,1.475,90.18771,2.489,52.21,59.67,33.84,35.6
"2018-02-18 15:30:00",328330,0.763,168.2,-6.875,64.32,37.02731,0,863.7576,0,112.8,2.08,201,0.877,1.506,100.9578,2.694,52.21,59.67,33.84,35.6
"2018-02-18 15:40:00",328331,0.596,234.7,-7.159,65.82,23.82058,0,863.7982,0,112.8,2.08,209,0.922,1.529,61.14823,2.541,52.21,59.67,33.84,35.6
"2018-02-18 15:50:00",328332,0.944,295.6,-7.558,63.43,17.35979,0,863.8445,0,112.7,2.083,196,0.934,1.553,39.93416,2.296,52.16,59.67,33.83,35.6
"2018-02-18 16:00:00",328333,0.795,247.7,-7.932,64.78,18.35899,0,863.8275,0,112.7,2.084,196,0.937,1.556,45.43702,2.447,52.21,59.67,33.84,35.6
"2018-02-18 16:10:00",328334,0.947,241.2,-8.17,63.08,10.81565,0,863.8954,0,112.6,2.085,197,0.966,1.541,26.2908,2.436,52.21,59.67,33.84,35.6
"2018-02-18 16:20:00",328335,0.768,193.9,-8.18,64.62,10.38697,0,863.9883,0,112.5,2.087,196,0.96,1.526,26.05193,2.507,52.21,59.67,33.84,35.6
"2018-02-18 16:30:00",328336,0.644,276.3,-8.36,63.87,12.36525,0,863.7965,0,112.6,2.086,195,0.938,1.486,32.93086,2.647,52.21,59.67,33.84,35.6
"2018-02-18 16:40:00",328337,0.751,242.7,-8.39,65.82,8.617135,0,863.8007,0,112.5,2.087,193,0.938,1.475,23.08649,2.673,52.21,59.67,33.84,35.6
"2018-02-18 16:50:00",328338,0.95,258.8,-8.49,66.59,5.97418,0,863.7164,0,112.3,2.09,194,0.935,1.499,16.16964,2.713,52.21,59.67,33.84,35.6
"2018-02-18 17:00:00",328339,0.772,239.2,-8.62,65.27,4.806088,0,863.7986,0,112.5,2.089,192,0.906,1.505,13.2042,2.747,52.21,59.67,33.84,35.6
"2018-02-18 17:10:00",328340,0.255,235.1,-8.86,67.05,3.535817,0,863.8281,0,112.5,2.089,193,0.862,1.535,9.2037,2.602,52.21,59.67,33.84,35.6
"2018-02-18 17:20:00",328341,0.261,277.8,-8.94,66.49,1.91161,0,864.0494,0,112.3,2.092,193,0.882,1.569,6.253849,3.362,52.21,59.73,33.84,35.62
"2018-02-18 17:30:00",328342,0.083,287.7,-9.21,69.43,0.5113687,0,864.0739,0,112.3,2.092,193,0.933,1.59,2.56772,3.061,52.21,59.67,33.84,35.6
"2018-02-18 17:40:00",328343,0.008,353.6,-9.32,69.79,0,0,864.1518,0,112.1,2.096,192,0.974,1.587,0.5310266,0,52.21,59.67,33.84,35.6
"2018-02-18 17:50:00",328344,0.034,353.5,-9.72,71.56,0,0,864.3699,0,112.1,2.098,192,0.939,1.541,0,0,52.21,59.67,33.84,35.6
"2018-02-18 18:00:00",328345,0.235,207.8,-10.23,74.26,0,0,864.389,0,112.1,2.098,194,0.935,1.546,0,0,52.21,59.67,33.84,35.6
"2018-02-18 18:10:00",328346,0.175,208.6,-10.07,71.85,0,0,864.3858,0,112.2,2.097,191,0.938,1.554,0.003793415,0,52.21,59.73,33.84,35.62
"2018-02-18 18:20:00",328347,0.418,217.1,-9.97,71.25,0,0,864.3676,0,112.1,2.097,192,0.944,1.572,0.3527881,0,52.21,59.67,33.84,35.6
"2018-02-18 18:30:00",328348,0.124,220.9,-10.03,72.65,0,0,864.3531,0,111.9,2.101,192,0.96,1.576,0.1289764,0,52.21,59.67,33.84,35.6
"2018-02-18 18:40:00",328349,0.038,217.4,-10.53,74.26,0,0,864.3405,0,112,2.102,192,0.979,1.57,0,0,52.21,59.67,33.84,35.6
"2018-02-18 18:50:00",328350,0,0,-10.53,75.82,0,0,864.273,0,111.8,2.103,192,0.981,1.567,0,0,52.21,59.73,33.84,35.62
"2018-02-18 19:00:00",328351,0,0,-10.83,76.96,0,0,864.448,0,111.9,2.104,192,0.972,1.544,0,0,52.21,59.67,33.84,35.6
"2018-02-18 19:10:00",328352,0,0,-10.91,78.96,0,0,864.6441,0,111.7,2.105,190,0.952,1.547,0.03034803,0,52.21,59.73,33.84,35.62
"2018-02-18 19:20:00",328353,0.184,198.1,-11.22,79.03,0,0,864.6602,0,111.8,2.107,192,0.955,1.566,0.003793574,0,52.21,59.67,33.84,35.6
"2018-02-18 19:30:00",328354,0.033,109.1,-10.66,77.23,0,0,864.6347,0,111.9,2.099,192,0.985,1.59,0.8461295,0,52.21,59.67,33.84,35.6
"2018-02-18 19:40:00",328355,0.065,9.46,-10.14,73.37,0,0,864.6316,0,111.8,2.102,192,1.012,1.609,0.7588968,0,52.21,59.67,33.84,35.6
"2018-02-18 19:50:00",328356,0.303,334.2,-9.69,71.73,0,0,864.6829,0,111.8,2.099,192,1.022,1.584,1.10804,0,52.21,59.67,33.84,35.6
"2018-02-18 20:00:00",328357,0.303,332.3,-9.7,70.97,0,0,864.673,0,111.7,2.1,190,1.023,1.586,0.3604968,0,52.21,59.67,33.84,35.6
"2018-02-18 20:10:00",328358,0.281,284.2,-9.62,71.47,0,0,864.2435,0,111.8,2.1,192,1.012,1.589,0.2997827,0,52.21,59.67,33.84,35.6
"2018-02-18 20:20:00",328359,0.839,306.8,-9.74,73.17,0,0,864.6043,0,111.5,2.103,191,1.011,1.589,0.1821467,0,52.21,59.67,33.84,35.6
"2018-02-18 20:30:00",328360,0.319,339.7,-9.7,68.44,0,0,865.1801,0,111.7,2.102,192,1.003,1.587,0.1707626,0,52.21,59.73,33.84,35.62
"2018-02-18 20:40:00",328361,0.097,30.41,-10.64,73.59,0,0,865.0725,0,111.5,2.109,190,0.996,1.589,0,0,52.21,59.73,33.84,35.62
"2018-02-18 20:50:00",328362,0.338,39.42,-10.4,73.62,0,0,864.9755,0,111.6,2.104,190,0.992,1.59,0,0,52.21,59.67,33.84,35.6
"2018-02-18 21:00:00",328363,0.447,15.52,-10.24,72.04,0,0,864.6359,0,111.6,2.105,191,0.961,1.59,0.01138417,0,52.21,59.67,33.84,35.6
"2018-02-18 21:10:00",328364,0.259,358.2,-10.45,73.41,0,0,864.6676,0,111.3,2.109,192,0.962,1.59,0.04553668,0,52.21,59.67,33.84,35.6
"2018-02-18 21:20:00",328365,0.923,35.86,-10.46,73.11,0,0,864.5579,0,111.3,2.107,190,0.975,1.59,0.09866281,0,52.21,59.67,33.84,35.6
"2018-02-18 21:30:00",328366,1.051,41.22,-10.29,73.08,0,0,864.5263,0,111.5,2.105,192,0.972,1.59,0.1897362,0,52.21,59.67,33.84,35.6
"2018-02-18 21:40:00",328367,0.782,17.61,-10.03,72.06,0,0,864.5473,0,111.4,2.104,190,0.99,1.59,0.2314781,0,52.21,59.67,33.84,35.6
"2018-02-18 21:50:00",328368,0.946,20.76,-9.92,71.35,0,0,864.4503,0,111.5,2.103,190,0.976,1.59,0.1479942,0,52.21,59.67,33.84,35.6
"2018-02-18 22:00:00",328369,0.598,26.9,-9.77,70.13,0,0,864.2689,0,111.3,2.105,193,0.984,1.589,0.1024575,0,52.21,59.67,33.84,35.6
"2018-02-18 22:10:00",328370,0.709,335.4,-10.01,71.68,0,0,864.0791,0,111.1,2.109,190,0.998,1.59,0,0,52.21,59.67,33.84,35.6
"2018-02-18 22:20:00",328371,0.513,353.2,-10.11,71.57,0,0,863.9863,0,111.1,2.107,190,0.99,1.584,0.05312613,0,52.21,59.67,33.84,35.6
"2018-02-18 22:30:00",328372,0.362,202.1,-9.75,67.7,0,0,863.7944,0,111.2,2.107,189,1,1.583,0.1290206,0,52.21,59.67,33.84,35.6
"2018-02-18 22:40:00",328373,0.151,255.5,-9.83,66.72,0,0,863.8323,0,111.3,2.103,190,0.999,1.559,0.1024575,0,52.16,59.67,33.83,35.6
"2018-02-18 22:50:00",328374,0.339,182.4,-9.95,66.44,0,0,863.8809,0,110.9,2.113,190,0.999,1.532,0.1821467,0,52.21,59.67,33.84,35.6
"2018-02-18 23:00:00",328375,0.212,157.4,-11.13,73.27,0,0,863.8345,0,110.9,2.116,191,1.009,1.532,0,0,52.21,59.67,33.84,35.6
"2018-02-18 23:10:00",328376,0.117,171.7,-11.36,74.33,0,0,863.7248,0,111,2.114,189,0.988,1.513,0,0,52.21,59.67,33.84,35.6
"2018-02-18 23:20:00",328377,0.233,176.5,-11.13,71.65,0,0,863.807,0,111,2.113,190,0.995,1.521,0.09107466,0,52.21,59.67,33.84,35.6
"2018-02-18 23:30:00",328378,0.157,170.8,-10.83,69.64,0,0,863.9041,0,110.9,2.115,189,0.997,1.541,0.07589796,0,52.21,59.67,33.84,35.6
"2018-02-18 23:40:00",328379,0.321,182.2,-11.01,70.86,0,0,863.8809,0,111.2,2.11,189,1.001,1.559,0.1517992,0,52.16,59.67,33.83,35.6
"2018-02-18 23:50:00",328380,0.377,131.8,-10.79,70.19,0,0,863.7944,0,110.9,2.115,190,1.011,1.567,0.2656578,0,52.21,59.67,33.84,35.6
